Date,TemperatureHighF,TemperatureAvgF,TemperatureLowF,DewpointHighF,DewpointAvgF,DewpointLowF,HumidityHigh,HumidityAvg,HumidityLow,PressureMaxIn,PressureMinIn,WindSpeedMaxMPH,WindSpeedAvgMPH,GustSpeedMaxMPH,PrecipitationSumIn
2013-3-1,54.9,48.7,38.7,41.1,31.4,26.0,88,53,38,30.31,30.22,20,7,20,0.00
2013-3-2,56.8,47.6,38.1,32.5,28.1,23.8,74,49,28,30.22,29.87,20,4,20,0.00
2013-3-3,48.0,39.7,29.5,24.4,10.1,5.8,42,29,22,30.14,29.84,18,5,18,0.00
2013-3-4,47.5,35.2,25.9,17.7,10.6,5.1,63,38,22,30.22,30.02,9,2,9,0.00
2013-3-5,43.5,36.0,30.4,17.5,11.0,5.4,47,36,28,30.05,29.78,13,4,13,0.00
2013-3-6,46.2,38.3,33.8,34.9,22.2,14.1,82,53,39,29.81,29.57,15,5,15,0.08
2013-3-7,48.6,37.8,28.2,30.4,25.3,17.4,81,63,31,30.02,29.78,15,4,15,0.31
2013-3-8,42.6,33.3,27.9,27.9,23.7,16.9,87,69,42,30.08,29.99,6,1,6,0.00
2013-3-9,49.3,36.0,25.2,29.9,20.3,11.2,82,57,26,30.34,30.08,8,1,8,0.00
2013-3-10,50.2,36.4,26.4,27.8,22.2,17.1,80,59,28,30.34,30.19,13,3,13,0.00
2013-3-11,48.4,39.1,30.2,31.2,20.1,10.0,84,51,22,30.25,30.16,10,2,10,0.00
2013-3-12,57.2,44.9,35.8,38.6,27.0,14.7,81,51,34,30.16,29.99,19,4,19,0.04
2013-3-13,59.7,51.0,45.9,34.0,29.7,26.4,57,44,30,30.14,30.02,17,7,17,0.00
2013-3-14,64.0,52.7,43.2,32.7,28.3,20.8,65,41,24,30.08,29.93,16,4,16,0.00
2013-3-15,59.7,50.3,41.2,30.2,24.6,19.3,63,37,26,30.11,29.96,17,6,17,0.00
2013-3-16,56.1,45.6,37.2,33.8,26.0,17.8,79,47,27,30.02,29.66,22,6,22,0.04
2013-3-17,49.1,39.5,32.7,22.2,12.3,4.2,55,33,22,29.96,29.66,23,7,23,0.00
2013-3-18,47.1,35.9,26.4,20.5,14.3,6.1,67,42,22,30.11,29.93,20,6,20,0.00
2013-3-19,50.4,37.1,21.9,25.8,16.0,10.3,79,47,24,30.22,29.81,11,2,11,0.00
2013-3-20,57.6,44.0,37.8,41.8,30.3,13.6,86,61,33,29.81,29.49,20,6,20,0.47
2013-3-21,46.6,36.5,27.3,20.4,14.3,10.4,60,41,27,29.96,29.75,24,7,24,0.00
2013-3-22,45.7,31.0,24.8,19.3,14.2,8.1,67,51,28,30.19,29.96,15,2,15,0.00
2013-3-23,46.0,31.0,20.3,20.7,12.8,9.0,75,49,29,30.28,30.16,11,2,11,0.00
2013-3-24,48.6,32.5,20.7,18.0,11.2,2.4,74,45,21,30.28,30.11,9,2,9,0.00
2013-3-25,51.8,35.8,20.3,18.0,12.4,5.9,57,40,26,30.14,29.96,10,2,10,0.00
2013-3-26,57.9,39.7,23.5,21.6,16.7,10.9,64,42,24,29.96,29.90,8,2,8,0.00
2013-3-27,59.2,45.6,35.1,29.5,22.9,18.2,69,42,27,29.96,29.90,9,2,9,0.00
2013-3-28,62.2,46.8,33.1,35.1,28.2,23.4,83,52,25,30.05,29.96,8,1,8,0.00
2013-3-29,65.1,47.5,34.9,37.0,26.4,14.8,80,48,20,30.16,30.02,14,2,14,0.00
2013-3-30,66.9,46.5,31.8,31.2,24.9,18.9,77,47,22,30.22,30.08,7,1,7,0.00
2013-3-31,72.9,48.4,30.9,30.9,25.2,19.9,79,45,19,30.08,29.87,8,1,8,0.00